Temperature
18 18 18 18 18 18 18 18 18 18 18 18 18 18 18 18 18 18 18 18 18 18 18 18 18 18 18 18 17 17 17 17 17 17 17 16 16 16 16 16 16 16 16
18 18 18 18 18 18 18 18 18 18 18 18 18 18 18 18 18 18 18 18 18 18 18 18 18 18 18 18 17 17 17 17 17 17 17 17 16 16 16 16 16 16 16
18 18 18 18 18 18 18 18 18 18 18 18 18 18 18 18 18 18 18 18 18 18 18 18 18 18 18 18 17 17 17 17 17 17 17 17 16 16 16 16 16 16 16
18 18 18 18 18 18 18 18 18 18 18 18 18 18 18 18 18 18 18 18 18 18 18 18 18 18 17 17 17 17 17 17 17 17 17 17 17 16 16 16 16 16 16
18 18 18 18 18 18 18 18 18 18 18 18 18 18 18 18 18 18 18 18 18 18 18 18 18 18 17 17 17 17 17 17 17 17 17 17 17 16 16 16 16 16 16
18 18 18 18 18 18 18 18 18 18 18 18 18 18 18 18 18 18 18 18 18 18 18 18 18 18 18 17 17 17 17 17 17 17 17 17 17 16 16 16 16 16 16
18 18 18 18 18 18 18 18 18 18 18 18 18 18 18 18 18 18 18 18 18 18 18 18 18 18 17 17 17 17 17 17 17 17 17 17 16 16 16 16 16 16 16
18 18 18 18 18 18 18 18 18 18 18 18 18 18 18 18 18 18 18 18 18 17 17 17 17 17 17 17 17 17 17 17 17 17 16 16 16 16 16 16 16 16 16
18 18 18 18 18 18 18 18 18 18 18 18 18 18 17 17 17 17 18 18 17 17 17 17 17 17 17 17 17 17 17 17 16 16 16 16 16 16 16 16 15 15 15
18 18 18 18 18 18 18 18 18 18 17 17 17 17 17 17 17 17 17 17 17 17 17 17 17 17 17 17 17 17 16 16 16 16 16 16 16 16 15 15 15 15 15
18 18 18 18 18 18 18 18 18 17 17 17 17 17 17 17 17 17 16 17 17 17 16 16 16 16 17 16 16 16 16 16 16 16 16 16 15 15 15 15 15 15 15
18 18 18 18 18 18 18 17 17 17 17 17 17 17 17 17 17 17 16 16 16 16 16 16 16 16 16 16 16 16 16 16 15 15 15 15 15 15 15 15 14 14 14
18 18 18 18 18 18 17 17 17 17 17 17 17 17 17 17 17 17 16 16 15 15 15 15 15 15 15 15 15 15 15 15 15 15 15 15 14 14 14 14 14 14 14
18 18 18 18 18 17 17 17 17 17 17 17 17 17 17 17 16 16 16 16 15 15 15 15 15 15 15 14 14 14 14 14 14 14 14 14 14 14 14 14 14 14 14
18 18 18 18 17 17 17 17 17 17 17 17 16 16 16 16 16 16 16 16 16 14 14 14 14 14 14 14 14 14 14 14 13 13 14 13 13 13 13 13 13 13 13
18 18 18 18 17 17 17 17 17 16 16 16 16 16 16 16 16 16 16 16 15 15 14 14 13 13 13 13 13 13 13 13 13 13 13 13 13 13 13 13 12 12 13
18 18 17 17 17 17 17 17 16 16 16 16 16 16 16 16 16 16 15 15 15 15 14 13 13 13 13 13 13 13 13 13 12 12 12 12 12 12 12 12 12 12 12
18 17 17 17 17 16 16 16 16 16 16 16 16 16 15 15 15 15 15 15 15 15 14 14 13 13 13 13 12 12 12 12 12 12 11 11 11 11 11 11 11 11 11
17 17 17 16 16 16 16 16 16 16 16 15 15 15 15 15 15 15 15 15 14 14 14 14 13 12 12 12 12 12 12 11 11 11 11 11 11 11 11 11 11 11 11
17 17 16 16 16 16 16 16 15 15 15 15 15 15 15 15 15 14 14 14 14 14 13 13 13 12 12 12 12 11 11 11 11 11 10 10 10 10 10 10 10 10 10
17 16 16 16 16 15 15 15 15 15 15 15 15 14 14 14 14 14 14 14 14 13 13 13 12 12 12 11 11 11 11 11 10 10 10 10 10 10 10 10 10 9 9
16 16 16 16 15 15 15 15 15 15 14 14 14 14 14 14 14 14 13 13 13 13 13 13 12 12 11 11 11 11 11 10 10 10 10 10 9 9 9 9 9 9 9
16 16 15 15 15 15 15 14 14 14 14 14 14 14 14 13 13 13 13 13 13 12 12 12 12 12 11 11 11 11 10 10 10 10 10 9 9 9 9 9 8 8 8
16 15 15 15 15 14 14 14 14 14 14 14 13 13 13 13 13 13 13 12 12 12 12 12 12 11 11 11 11 11 10 10 10 9 9 9 9 9 9 8 8 8 8
16 15 15 14 14 14 14 14 14 14 13 13 13 13 13 13 12 12 12 12 12 11 11 11 11 11 11 10 10 10 10 10 10 9 9 9 9 8 8 8 8 8 8
15 15 15 14 14 14 14 13 13 13 13 13 13 12 12 12 12 12 12 12 11 11 11 11 10 10 10 10 10 10 10 10 10 9 9 9 8 8 8 8 8 8 8
Wind_Speed
3 4 4 5 6 6 5 4 4 3 3 4 5 5 5 6 8 10 11 16 18 17 17 16 16 16 16 15 15 14 14 14 14 14 14 13 13 13 13 13 12 12 12
4 3 2 3 4 5 6 5 4 3 3 3 3 4 5 7 9 10 11 14 17 18 18 18 17 17 17 16 16 16 15 15 15 15 15 15 15 14 14 14 14 14 14
4 3 2 2 3 5 5 4 3 2 2 2 3 3 3 5 6 8 10 11 13 16 18 18 18 18 18 17 17 17 16 16 16 16 16 16 16 16 16 15 15 15 15
4 2 2 2 3 3 2 2 2 1 2 1 2 2 2 2 5 7 9 10 11 12 15 18 18 18 18 17 17 17 17 17 17 17 17 17 16 16 16 16 17 16 16
3 2 1 1 1 1 1 2 1 2 2 2 2 2 2 2 3 5 6 8 9 10 11 13 16 15 15 15 15 16 16 17 17 18 18 17 17 17 17 17 17 17 17
1 2 1 1 1 1 0 1 1 2 2 3 3 2 2 3 2 3 4 4 6 8 9 8 9 9 11 11 12 13 14 14 14 14 14 15 15 15 16 16 15 16 17
2 2 0 0 1 1 2 2 2 2 2 1 0 1 2 1 1 2 2 2 2 5 6 7 6 6 7 10 11 12 12 12 12 13 13 13 13 13 12 13 13 14 14
2 2 1 1 1 1 1 2 2 1 2 1 2 1 1 3 2 1 1 3 2 2 3 5 5 6 6 5 7 11 12 12 12 12 12 13 13 13 13 13 12 13 14
2 1 1 1 1 1 2 2 2 3 2 1 2 3 2 2 1 2 1 1 1 1 2 2 3 4 5 5 5 6 9 11 11 11 11 11 12 12 13 13 13 13 13
1 1 1 1 1 1 1 2 2 2 2 2 1 2 3 4 2 1 2 1 0 1 1 1 1 2 3 4 4 4 5 7 8 9 9 9 10 11 11 12 12 13 13
2 1 0 0 1 1 1 1 1 1 2 2 2 1 1 1 2 2 1 2 2 2 1 1 1 1 1 2 2 2 3 2 4 6 6 6 7 7 8 8 8 8 9
2 2 1 0 1 1 1 1 1 1 1 1 2 2 2 2 2 3 3 1 0 1 2 2 2 2 3 3 3 4 4 3 2 2 2 2 3 4 4 4 5 5 5
1 2 1 1 1 1 1 1 1 1 0 1 1 1 2 2 2 3 3 2 1 1 2 3 3 4 5 6 5 6 6 5 5 4 4 3 2 2 1 1 1 1 2
0 1 1 1 1 2 2 1 1 1 1 1 1 1 0 1 1 2 3 3 2 1 2 2 3 4 6 7 8 8 6 7 7 7 7 6 5 5 4 4 4 3 3
1 1 2 2 2 2 2 2 2 2 2 2 2 2 2 1 1 1 2 3 4 2 0 1 2 2 5 7 8 9 9 10 9 8 8 8 7 7 7 7 7 7 6
2 2 3 3 3 3 3 3 2 2 3 3 2 3 3 2 2 2 1 1 2 3 2 1 2 2 4 6 9 10 10 12 13 11 10 10 11 11 10 10 10 10 8
3 3 2 3 3 3 3 3 3 4 4 4 4 4 4 3 3 3 2 2 3 4 4 2 2 3 3 4 5 8 9 10 10 13 12 12 13 13 12 12 11 11 11
3 3 3 4 4 4 4 4 4 5 5 5 5 5 5 4 5 3 3 3 3 3 5 5 2 2 3 3 4 5 6 8 9 12 13 13 13 13 13 13 12 12 12
4 4 4 4 4 4 4 4 5 5 5 5 5 5 4 5 5 4 4 4 4 5 5 6 3 2 2 3 4 4 6 6 8 10 11 12 13 13 13 13 12 12 12
4 4 4 4 4 4 4 4 5 5 5 5 5 5 5 5 4 4 4 4 5 5 5 6 4 3 2 2 3 4 4 3 4 6 8 9 11 12 12 12 11 11 12
4 4 4 4 4 4 4 5 5 5 5 5 5 5 6 7 7 5 5 4 5 5 5 5 4 3 3 2 2 2 3 3 3 3 3 4 5 6 8 8 9 9 10
4 5 5 5 5 4 6 8 6 5 5 5 5 5 5 7 8 8 8 8 7 6 5 4 3 4 2 2 2 3 3 2 1 1 2 2 2 2 3 4 5 7 7
5 5 5 5 5 5 8 9 9 6 6 5 5 5 5 6 6 5 7 9 8 7 6 6 5 4 3 3 3 3 3 2 2 1 2 1 1 1 0 1 2 4 5
5 4 4 4 4 5 7 9 10 7 6 5 5 5 5 5 5 5 6 6 6 5 4 4 4 3 3 3 4 4 4 3 3 2 2 2 1 0 0 1 1 1 2
5 4 4 4 4 4 6 8 8 5 5 5 4 4 5 5 6 8 7 7 6 5 7 8 8 7 7 7 7 5 4 4 2 1 1 2 0 1 1 1 2 1 1
5 5 4 4 4 4 5 7 7 5 5 4 4 4 6 5 7 7 6 6 5 3 3 5 6 6 6 5 5 5 5 4 2 0 1 2 1 1 1 2 2 2 2
Wind_Direction
172 184 206 209 212 211 213 222 224 231 239 242 231 210 200 191 184 181 188 192 192 194 196 196 197 198 198 198 198 199 200 201 201 200 201 202 203 204 205 205 204 203 204
174 175 189 202 209 206 206 209 210 211 227 233 240 220 200 187 187 185 189 196 199 201 204 203 203 203 204 204 205 205 206 207 207 207 208 209 210 211 212 212 212 212 212
176 171 174 205 220 209 199 203 213 214 231 234 239 233 206 192 188 194 192 196 203 209 211 211 210 209 209 210 211 212 212 212 213 212 213 214 215 216 217 218 218 217 217
184 171 180 226 232 204 184 198 210 206 242 239 243 248 220 194 194 200 200 203 207 212 217 219 217 214 212 213 215 216 216 216 217 218 217 218 218 217 218 221 222 220 220
177 174 195 232 204 144 175 208 190 195 222 240 245 245 230 218 215 211 206 208 209 212 212 219 219 216 218 220 221 221 220 221 222 223 223 223 223 223 223 224 225 225 224
176 168 189 207 159 139 178 197 213 226 221 229 256 266 250 238 218 215 211 206 208 208 206 208 210 216 218 220 221 220 219 219 221 223 225 225 224 224 224 223 225 226 226
184 158 159 164 175 179 220 216 216 239 249 202 172 316 324 313 251 222 201 177 200 213 200 200 201 205 219 226 226 222 219 218 218 219 222 223 221 219 220 222 225 225 225
195 176 169 209 223 211 251 247 215 209 249 187 167 154 326 345 351 277 215 183 203 210 189 200 200 203 214 220 228 227 226 225 224 223 222 223 224 224 223 224 228 229 228
213 217 204 191 229 213 239 255 222 199 226 251 188 166 172 226 288 333 313 216 186 175 182 163 183 211 214 217 227 235 233 231 231 232 230 228 225 226 228 228 229 229 229
230 244 209 208 223 226 248 262 233 206 188 230 257 218 196 176 177 277 337 347 16 149 168 154 163 203 203 202 204 208 215 228 232 235 239 236 228 228 230 233 235 236 235
318 311 317 273 261 247 250 271 285 211 188 202 214 224 232 213 185 185 252 331 13 39 74 98 97 111 147 164 165 156 153 185 225 232 234 236 235 231 234 238 242 242 240
313 337 26 322 287 288 272 266 283 255 215 214 217 205 194 192 200 186 206 226 353 10 44 50 57 62 80 94 111 117 117 117 144 189 222 239 254 243 246 253 255 253 251
333 328 335 309 301 309 323 335 16 351 276 245 238 236 217 220 192 172 174 191 165 4 38 44 42 56 69 72 77 87 89 97 98 99 89 81 74 76 67 290 280 268 256
257 343 23 26 15 13 11 17 31 8 38 32 21 9 353 263 175 174 172 159 141 44 44 43 39 46 67 73 72 75 80 95 98 94 88 82 76 71 67 65 58 53 53
89 55 57 47 24 24 20 41 41 27 41 45 31 28 39 30 61 152 165 166 159 160 64 49 53 40 72 78 75 77 74 76 84 85 83 82 77 74 70 68 66 66 67
69 69 60 53 44 36 37 51 48 34 52 44 53 51 39 27 42 54 107 141 151 158 143 75 78 89 81 82 77 81 81 76 74 78 78 78 76 73 70 66 65 65 64
79 79 74 68 57 46 42 51 52 49 56 45 42 55 44 40 49 46 64 82 96 119 125 92 74 80 81 84 80 79 79 77 75 78 79 78 76 74 72 70 68 65 64
77 78 77 70 65 57 49 57 61 55 59 54 44 50 41 52 52 48 68 81 91 102 125 119 90 80 83 104 100 91 84 81 80 76 76 75 73 72 71 69 66 63 62
80 74 75 73 68 62 58 61 69 68 68 63 57 56 44 57 56 53 66 77 85 96 105 122 110 91 83 96 94 87 86 81 83 79 75 73 72 72 70 69 66 64 62
87 79 79 75 74 71 69 72 75 71 67 64 64 62 53 57 61 68 76 79 92 95 98 108 107 100 99 104 98 96 84 62 74 80 75 75 71 68 67 68 68 67 65
95 86 76 64 63 72 75 86 84 82 74 68 59 59 62 63 63 72 91 96 100 103 106 110 111 101 99 113 117 117 109 89 57 72 71 66 65 61 58 62 65 68 67
84 79 73 71 64 68 80 87 94 83 76 78 72 56 58 51 53 62 78 88 103 121 124 119 113 123 128 130 122 128 121 103 63 348 91 70 79 60 47 61 69 71 70
96 87 80 78 68 60 79 89 93 91 82 78 75 64 60 51 52 63 69 70 70 86 116 135 134 144 147 158 140 128 130 123 139 198 107 68 35 58 314 47 77 77 70
109 101 89 82 75 62 77 90 94 87 80 72 72 76 76 52 58 77 79 70 61 55 72 101 129 138 143 150 153 153 147 113 75 51 91 98 345 339 319 326 10 67 61
114 108 103 93 86 62 78 99 101 93 82 66 61 64 76 69 62 79 85 81 65 45 58 76 92 97 102 114 121 108 101 102 85 325 18 101 95 17 358 312 294 273 272
127 120 103 96 97 84 89 107 111 109 96 79 59 48 56 72 69 77 92 98 90 70 73 69 63 68 75 88 107 126 139 130 123 237 287 95 108 88 3 304 287 272 266
Height
1557 1557 1557 1557 1557 1557 1558 1559 1559 1560 1560 1561 1561 1561 1561 1562 1562 1562 1563 1563 1563 1564 1564 1565 1565 1566 1566 1566 1567 1568 1568 1569 1570 1570 1571 1572 1572 1573 1574 1575 1575 1576 1577
1557 1557 1557 1557 1557 1557 1558 1558 1559 1559 1560 1560 1560 1561 1561 1561 1561 1562 1562 1562 1562 1563 1563 1563 1564 1564 1565 1565 1566 1566 1567 1568 1568 1569 1569 1570 1571 1572 1572 1573 1574 1574 1575
1557 1557 1556 1557 1557 1557 1557 1557 1558 1558 1558 1559 1559 1559 1560 1560 1560 1560 1561 1561 1561 1561 1561 1562 1562 1562 1563 1563 1564 1565 1565 1566 1566 1567 1567 1568 1569 1569 1570 1571 1571 1572 1573
1556 1556 1556 1556 1555 1555 1556 1556 1556 1557 1557 1557 1557 1557 1558 1558 1558 1558 1559 1559 1559 1560 1560 1560 1560 1560 1561 1561 1561 1562 1563 1563 1564 1564 1565 1565 1566 1567 1567 1568 1569 1569 1570
1555 1555 1554 1554 1554 1554 1554 1554 1555 1555 1555 1555 1555 1555 1555 1555 1555 1556 1556 1557 1557 1557 1557 1557 1558 1558 1558 1558 1559 1559 1560 1561 1561 1562 1562 1562 1563 1564 1564 1565 1565 1566 1567
1553 1553 1553 1552 1552 1552 1553 1553 1553 1553 1552 1552 1552 1553 1553 1553 1553 1553 1554 1554 1554 1554 1554 1555 1554 1555 1555 1556 1556 1557 1557 1558 1558 1558 1559 1559 1560 1560 1561 1562 1562 1563 1563
1552 1552 1551 1551 1550 1550 1551 1551 1551 1551 1550 1550 1550 1550 1550 1550 1550 1551 1551 1551 1551 1551 1552 1552 1552 1552 1553 1553 1553 1554 1554 1554 1555 1555 1555 1556 1556 1557 1557 1558 1558 1559 1560
1551 1551 1550 1549 1549 1549 1549 1549 1548 1548 1548 1548 1548 1548 1548 1549 1548 1548 1548 1548 1548 1549 1548 1549 1549 1550 1550 1550 1551 1551 1552 1552 1552 1552 1552 1552 1553 1553 1554 1554 1555 1555 1556
1550 1550 1549 1548 1548 1547 1547 1546 1546 1545 1545 1545 1546 1546 1546 1545 1545 1546 1546 1546 1546 1546 1546 1546 1547 1547 1548 1548 1548 1548 1549 1549 1548 1548 1549 1549 1549 1549 1550 1550 1551 1551 1552
1549 1548 1548 1547 1546 1546 1545 1544 1544 1543 1543 1542 1543 1543 1544 1543 1544 1543 1544 1544 1544 1544 1544 1544 1544 1545 1545 1545 1546 1546 1545 1546 1545 1545 1545 1545 1545 1546 1546 1547 1547 1547 1547
1548 1547 1546 1545 1545 1544 1543 1542 1541 1541 1540 1540 1540 1540 1540 1540 1541 1541 1541 1542 1542 1542 1541 1542 1542 1542 1543 1543 1543 1543 1543 1542 1542 1542 1542 1542 1543 1543 1543 1543 1543 1543 1543
1547 1546 1545 1544 1543 1542 1541 1540 1539 1539 1538 1538 1537 1537 1537 1537 1537 1538 1538 1538 1539 1540 1540 1540 1540 1540 1540 1540 1540 1540 1540 1540 1539 1539 1539 1539 1539 1539 1540 1540 1540 1540 1540
1546 1546 1545 1543 1542 1541 1540 1539 1538 1536 1536 1536 1535 1535 1535 1535 1535 1535 1535 1536 1536 1538 1539 1539 1539 1539 1539 1538 1538 1538 1538 1537 1537 1537 1537 1537 1537 1536 1536 1536 1537 1536 1536
1545 1544 1543 1542 1541 1540 1539 1538 1536 1535 1535 1534 1533 1533 1532 1532 1533 1533 1533 1534 1535 1536 1537 1538 1538 1537 1537 1537 1536 1536 1536 1536 1536 1535 1535 1535 1535 1534 1534 1534 1534 1534 1533
1544 1544 1543 1541 1540 1539 1538 1537 1535 1534 1533 1533 1532 1531 1531 1531 1531 1531 1531 1532 1533 1534 1535 1536 1536 1537 1536 1536 1536 1535 1535 1535 1535 1534 1533 1533 1533 1533 1532 1532 1532 1531 1531
1544 1543 1542 1541 1539 1538 1537 1536 1534 1533 1532 1532 1531 1530 1530 1529 1529 1529 1530 1530 1531 1532 1533 1534 1535 1535 1536 1536 1535 1535 1535 1535 1534 1534 1533 1533 1532 1532 1532 1531 1530 1530 1529
1543 1542 1541 1540 1539 1537 1536 1535 1534 1533 1532 1531 1530 1530 1529 1529 1529 1529 1528 1529 1530 1531 1531 1533 1534 1535 1536 1535 1535 1535 1535 1534 1534 1534 1533 1533 1532 1532 1531 1530 1530 1529 1528
1542 1541 1540 1539 1538 1537 1536 1535 1534 1533 1532 1531 1530 1530 1529 1529 1528 1528 1528 1529 1529 1530 1531 1532 1533 1534 1535 1535 1535 1535 1535 1535 1534 1534 1534 1533 1533 1532 1531 1531 1530 1529 1528
1541 1540 1539 1538 1538 1537 1536 1535 1534 1533 1532 1531 1531 1530 1530 1529 1529 1529 1528 1529 1529 1530 1531 1531 1533 1534 1535 1535 1536 1536 1536 1535 1536 1535 1535 1535 1534 1533 1532 1531 1530 1530 1529
1541 1540 1539 1539 1538 1537 1537 1536 1535 1534 1533 1532 1531 1531 1530 1530 1530 1530 1529 1529 1530 1530 1531 1532 1533 1534 1535 1535 1536 1536 1536 1537 1537 1537 1537 1536 1536 1535 1534 1533 1532 1531 1530
1541 1540 1540 1539 1539 1538 1537 1536 1535 1534 1533 1532 1532 1531 1531 1531 1531 1531 1531 1531 1531 1531 1531 1532 1533 1534 1534 1535 1536 1536 1537 1537 1538 1538 1538 1537 1537 1536 1535 1534 1533 1532 1531
1541 1541 1540 1540 1539 1538 1538 1537 1536 1535 1534 1533 1533 1532 1532 1532 1532 1532 1532 1532 1532 1532 1532 1532 1533 1533 1534 1535 1536 1537 1537 1537 1538 1539 1539 1538 1538 1537 1536 1535 1534 1533 1532
1540 1540 1540 1540 1539 1539 1538 1538 1537 1537 1536 1535 1535 1534 1534 1534 1534 1533 1533 1533 1533 1533 1534 1534 1534 1534 1535 1536 1537 1537 1538 1538 1538 1539 1539 1539 1539 1538 1538 1537 1536 1535 1534
1540 1540 1540 1540 1540 1539 1539 1539 1538 1538 1537 1536 1536 1536 1535 1535 1535 1535 1534 1534 1534 1534 1535 1535 1535 1536 1536 1537 1538 1538 1539 1539 1540 1540 1540 1539 1539 1539 1538 1538 1537 1536 1535
1540 1540 1540 1540 1540 1540 1540 1540 1539 1539 1538 1537 1537 1537 1537 1536 1536 1536 1536 1535 1535 1536 1536 1537 1537 1537 1538 1538 1539 1539 1539 1539 1539 1540 1540 1540 1539 1539 1539 1539 1538 1537 1536
1540 1540 1540 1541 1541 1540 1540 1540 1540 1540 1539 1538 1538 1538 1538 1537 1537 1537 1537 1537 1537 1537 1538 1538 1538 1538 1539 1539 1539 1539 1540 1540 1540 1540 1540 1540 1539 1539 1539 1539 1538 1537 1536